Location: Porto s’ Uedda
(39.9667°N, 8.3833°E)
Time: 17:07:20
(UTC+00:00)

Daily predictions for brighter satellites

Satellite Brightness Start Highest point End
(mag) Time Altitude Azimuth Time Altitude Azimuth Time Altitude Azimuth
Cosmos 2263 Rocket 3.5 16:25:33 10° SE 16:29:29 20° E 16:33:25 10° NE
Cosmos 2228 4.3 16:25:27 10° SSW 16:29:36 44° W 16:33:46 10° N
Cosmos 1437 Rocket 4.0 16:28:10 10° NNE 16:30:53 19° ENE 16:33:37 10° ESE
Helios 1A 4.1 16:27:54 10° NE 16:31:21 25° E 16:34:47 10° SSE
ISS -1.3 16:30:29 10° NNW 16:31:39 11° N 16:32:48 10° NNE
Cosmos 405 Rocket 3.3 16:32:18 10° SSE 16:35:41 35° E 16:39:10 10° NNE
Cosmos 1607 4.4 16:29:51 10° S 16:35:43 44° ESE 16:41:44 10° NE
DMSP B5D2-2 4.1 16:31:04 10° NNE 16:36:18 79° ESE 16:41:30 10° S
SL-24 R/B - RUBIN 2 4.4 16:31:40 10° SW 16:36:47 68° NW 16:42:39 10° NNE
Cosmos 1606 3.0 16:36:33 10° SSW 16:40:07 66° W 16:43:44 10° N
CZ-2D R/B 3.6 16:37:58 10° S 16:41:39 68° W 16:45:19 10° NNW
Meteor 2-16 Rocket 4.5 16:38:22 10° S 16:44:30 88° E 16:50:40 10° N
Cosmos 2279 Rocket 4.3 16:38:44 10° N 16:44:44 46° ENE 16:50:39 10° SSE
CZ-4B R/B 4.1 16:42:01 10° SE 16:46:39 35° ENE 16:51:12 10° N
Aureole 3 Rocket 3.0 16:43:15 10° N 16:48:29 70° E 16:52:17 10° SSE
SL-16 R/B 2.8 16:43:21 10° N 16:48:30 34° ENE 16:53:35 10° ESE
CORIOLIS 4.1 16:43:13 10° SSE 16:48:31 71° ENE 16:53:51 10° N
Cosmos 2151 3.5 16:44:43 10° N 16:48:39 35° ENE 16:52:34 10° SE
Cosmos 1953 Rocket 3.6 16:44:42 10° N 16:49:07 57° E 16:53:28 10° SSE
CZ-2C R/B 3.0 16:47:39 10° S 16:51:10 65° WSW 16:54:42 10° NNW
Cosmos 1666 4.0 16:50:44 10° NNE 16:53:09 17° ENE 16:55:33 10° ESE
Meteor 1-31 Rocket 2.5 16:50:29 10° SSE 16:54:08 69° ENE 16:57:48 10° N
NOSS 2-1 (E) 4.0 16:50:13 10° NNW 16:54:33 56° NE 17:00:40 10° SE
Radarsat Rocket 4.5 16:50:05 10° SE 16:55:15 34° ENE 17:00:28 10° N
Cosmos 1461 2.7 16:51:35 10° NNW 16:55:40 89° ENE 16:59:34 10° SSE
Cosmos 2058 Rocket 3.1 16:56:28 10° S 17:00:52 64° E 17:05:17 10° NNE
COSMO-SKYMED 1 3.2 16:59:49 10° NNE 17:03:49 35° E 17:07:49 10° SSE
Tiangong -2.1 17:00:42 10° WNW 17:03:51 67° N 17:05:50 20° E
ATLAS 5 CENTAUR R/B 2.9 17:00:01 10° NW 17:05:25 64° WSW 17:12:00 10° SSE
Cosmos 1076 Rocket 3.8 17:02:00 10° N 17:06:13 46° E 17:10:24 10° SSE
Cosmos 2219 3.2 17:03:06 10° SSW 17:08:43 86° ESE 17:14:22 10° NNE
Cosmos 1862 3.6 17:08:45 10° NNW 17:12:37 69° W 17:16:30 10° S
Cosmos 2297 Rocket 3.9 17:08:21 10° WSW 17:13:18 31° WNW 17:18:17 10° N
CZ-2C R/B 2.1 17:13:07 10° SW 17:15:03 20° S 17:16:00 16° SE
Cosmos 44 4.5 17:11:58 10° N 17:16:28 26° NE 17:18:21 21° ENE
Cosmos 1812 3.6 17:15:30 10° SSE 17:18:31 25° E 17:18:31 25° E
Cosmos 2292 Rocket 4.5 17:15:38 10° SSW 17:20:23 69° W 17:26:44 10° N
NOSS 3-4 (A) 4.0 17:15:03 10° NNW 17:22:01 58° NE 17:29:58 10° SE
NOSS 3-4 (C) 3.9 17:15:13 10° NNW 17:22:07 58° NE 17:29:57 10° SE
Cosmos 724 4.4 17:16:24 10° SSW 17:22:35 74° ESE 17:27:49 15° NE
Cosmos 614 Rocket 3.9 17:17:45 10° NNW 17:22:59 75° ENE 17:28:09 10° SSE
Cosmos 1500 2.9 17:20:56 10° N 17:24:27 64° E 17:27:56 10° SSE
Cosmos 2082 3.6 17:23:25 10° SSW 17:29:00 78° ESE 17:34:02 13° NNE
Hubble Space Telescope 3.0 17:28:13 10° SW 17:30:41 16° S 17:33:02 10° SE
CBERS 1 LM4 rocket 4.3 17:26:09 10° SSE 17:31:04 71° ENE 17:35:51 10° N
USA 234 4.2 17:26:58 12° NE 17:32:26 38° NNW 17:38:21 10° W
Cosmos 2180 Rocket 4.5 17:26:36 10° N 17:33:02 82° E 17:39:24 10° S
NOAA 6 3.9 17:33:00 10° SSE 17:38:09 80° ENE 17:43:18 10° N
Cosmos 2237 Rocket 4.4 17:36:33 10° NW 17:41:11 27° WSW 17:45:48 10° SSW
[s.n.70977] 3.4 17:39:21 10° W 17:41:22 41° NW 17:41:22 41° NW
[s.n.70962] 3.4 17:39:22 10° W 17:41:23 41° NW 17:41:23 41° NW
[s.n.70958] 3.4 17:39:22 10° W 17:41:23 41° NW 17:41:23 41° NW
[s.n.70960] 3.4 17:39:22 10° W 17:41:23 41° NW 17:41:23 41° NW
[s.n.70935] 3.4 17:39:22 10° W 17:41:23 41° NW 17:41:23 41° NW
[s.n.70966] 3.4 17:39:22 10° W 17:41:23 41° NW 17:41:23 41° NW
[s.n.70957] 3.4 17:39:22 10° W 17:41:23 41° NW 17:41:23 41° NW
[s.n.70928] 3.4 17:39:23 10° W 17:41:24 41° NW 17:41:24 41° NW
[s.n.70944] 3.4 17:39:23 10° W 17:41:24 41° NW 17:41:24 41° NW
[s.n.70946] 3.4 17:39:23 10° W 17:41:24 41° NW 17:41:24 41° NW
[s.n.70943] 3.4 17:39:23 10° W 17:41:24 41° NW 17:41:24 41° NW
[s.n.70926] 3.4 17:39:23 10° W 17:41:24 41° NW 17:41:24 41° NW
[s.n.70976] 3.4 17:39:24 10° W 17:41:25 41° NW 17:41:25 41° NW
[s.n.70975] 3.4 17:39:24 10° W 17:41:25 41° NW 17:41:25 41° NW
[s.n.70961] 3.4 17:39:24 10° W 17:41:25 41° NW 17:41:25 41° NW
[s.n.70963] 3.4 17:39:24 10° W 17:41:25 41° NW 17:41:25 41° NW
[s.n.70959] 3.4 17:39:25 10° W 17:41:26 41° NW 17:41:26 41° NW
[s.n.70971] 3.4 17:39:25 10° W 17:41:26 41° NW 17:41:26 41° NW
[s.n.70942] 3.4 17:39:25 10° W 17:41:26 41° NW 17:41:26 41° NW
[s.n.70950] 3.4 17:39:25 10° W 17:41:26 41° NW 17:41:26 41° NW
[s.n.70951] 3.4 17:39:25 10° W 17:41:26 41° NW 17:41:26 41° NW
[s.n.70869] 3.4 17:39:26 10° W 17:41:26 41° NW 17:41:26 41° NW
[s.n.70969] 3.4 17:39:26 10° W 17:41:27 41° NW 17:41:27 41° NW
Meteor 1-20 Rocket 4.3 17:39:21 10° N 17:44:42 48° ENE 17:50:06 10° SSE
Cosmos 1544 4.4 17:42:20 10° NNW 17:45:21 36° W 17:48:21 10° SSW
USA 276 4.2 17:44:12 10° SSW 17:44:43 14° S 17:44:43 14° S
TRACE 4.4 17:47:27 62° ESE 17:47:27 62° ESE 17:50:51 10° S
H-2A R/B 3.1 17:47:27 10° WSW 17:50:47 34° S 17:54:44 21° ESE
SKYMED 2 3.9 17:47:39 10° N 17:51:57 64° WNW 17:56:14 10° SSW
Cosmos 1602 3.4 17:48:46 10° N 17:52:29 86° E 17:56:13 10° S
Cosmos 2084 Rocket 3.1 17:52:11 10° NW 17:55:59 79° WSW 17:56:55 49° SSE
Cosmos 2227 4.5 17:50:50 10° S 17:56:17 46° ESE 17:57:02 44° E
Cosmos-2242 2.9 17:52:10 10° S 17:56:29 88° ESE 17:58:36 30° N
SME Rocket 3.9 17:57:08 43° E 17:58:06 48° ENE 18:04:36 10° N
JB-3 4.5 17:57:35 29° N 17:59:27 70° WNW 18:03:16 10° SSW
Cosmos 2227 Rocket 4.4 18:04:35 10° W 18:08:47 21° NW 18:13:00 10° N
ISS -0.9 18:06:57 10° NNW 18:07:17 11° NNW 18:07:17 11° NNW
ADEOS 3.6 18:05:43 10° S 18:10:55 77° WSW 18:16:10 10° NNW
Cosmos 2263 Rocket 2.8 18:07:30 10° SW 18:12:54 53° WNW 18:16:28 21° N
Cosmos 1844 Rocket 4.5 18:11:21 10° SSE 18:12:38 16° SSE 18:12:38 16° SSE
ATLAS CENTAUR R/B 3.4 18:13:23 10° NNW 18:18:23 48° NE 18:18:26 48° NE
Cosmos 1812 Rocket 3.8 18:15:12 10° SSW 18:19:29 65° W 18:19:55 60° NW
SL-08 R/B 4.2 18:17:34 18° N 18:20:41 46° WNW 18:25:05 10° SW
Meteor 2-17 Rocket 4.3 18:15:29 10° S 18:21:36 78° E 18:23:51 42° NNE
Cosmos 2026 Rocket 3.9 18:24:35 10° S 18:30:47 89° WNW 18:33:42 34° N
Lacrosse 5 4.1 18:27:53 10° S 18:28:38 13° S 18:28:38 13° S
SL-16 R/B 3.8 18:27:29 10° NW 18:32:32 34° WSW 18:37:34 10° SSW
ATLAS 2AS CENTAUR R/B 4.3 18:32:52 10° NNW 18:35:49 20° N 18:35:49 20° N
Cosmos 1092 Rocket 4.0 18:32:20 10° SSW 18:38:29 75° W 18:41:19 34° N
CZ-4B DEB 4.3 18:39:26 64° SSW 18:40:12 75° WSW 18:45:46 10° NNW
Tiangong 1.2 18:37:29 10° W 18:37:57 13° W 18:37:57 13° W
Cosmos 1943 4.2 18:45:17 10° NNW 18:48:39 38° NNW 18:48:39 38° NNW
Cosmos 2344 3.6 18:44:55 10° SW 18:52:39 67° NW 18:54:21 52° N
Centaur D AC-28 4.3 19:22:51 10° WSW 19:30:09 25° SSW 19:30:09 25° SSW
